{"data":{"norad_id":42967,"intl_designator":"2017-063A","name":"SES-11 (ECHOSTAR 105)","alt_names":[],"object_type":"PAYLOAD","status":"ACTIVE","operator":null,"country":"SES","launch_date":"2017-10-11","launch_site_code":"AFETR","launch_vehicle":null,"mission":null,"orbit_class":"UNKNOWN","rcs_meters":null,"size_class":null,"mass_kg":null,"dimensions":null,"purposes":["comms"],"wikipedia_slug":null,"has_3d_model":false,"image_url":null,"decayed_at":null,"tle_current":{"epoch":"2026-09-20T03:57:02.628000Z","epoch_age_seconds":43360,"freshness":"FRESH","line1":"1 42967U 17063A   26263.16461375 -.00000094  00000+0  00000+0 0  9999","line2":"2 42967   0.0370 328.4477 0002676 190.8014 154.1344  1.00272392 32675","mean_motion":1.00272392,"eccentricity":0.0002676,"inclination_deg":0.037,"raan_deg":328.4477,"arg_perigee_deg":190.8014,"mean_anomaly_deg":154.1344,"bstar":0,"rev_number":3267,"period_min":1436.0882106014,"perigee_km":35775.141561177,"apogee_km":35797.708034651,"semimajor_km":42164.561797914,"source":"CELESTRAK","updated_at":"2026-09-20T09:00:35.685088Z"}}}